TDRS 11

Last updated on Jan. 20, 2021, 6:22 a.m. UTC

1 39070U 13004A   21019.87105269  .00000088  00000-0  00000-0 0  9994
2 39070   3.5271 335.0502 0004446  25.4667 258.1382  1.00275308 26895
UTC
Height (km)
Latitude
Longitude
Inclination
Orbital Period
UTC large
Height (km)
Speed (km/s)
/
Latitude / Longitude
Inclination (degrees)
Orbital Period (minutes)
Azimuth
Elevation
Range (km)
Doppler Factor
iOS Compass Heading
iOS Angle

Next 30 passes for location: Hong Kong

Rise time Rise Azimuth (degrees) Set time Set Azimuth (degrees) Duration Max altitude (degrees)

No matching passes for this satellites